Year,Month,Day,Hour,Minute,Value (Times are PST for temperature in C)
2017,05,07,00,00,5.30
2017,05,07,00,01,5.30
2017,05,07,00,02,5.30
2017,05,07,00,03,5.20
2017,05,07,00,04,5.20
2017,05,07,00,05,5.20
2017,05,07,00,06,5.20
2017,05,07,00,07,5.20
2017,05,07,00,08,5.20
2017,05,07,00,09,5.20
2017,05,07,00,10,5.20
2017,05,07,00,11,5.20
2017,05,07,00,12,5.20
2017,05,07,00,13,5.20
2017,05,07,00,14,5.20
2017,05,07,00,15,5.20
2017,05,07,00,16,5.20
2017,05,07,00,17,5.20
2017,05,07,00,18,5.20
2017,05,07,00,19,5.20
2017,05,07,00,20,5.20
2017,05,07,00,21,5.10
2017,05,07,00,22,5.10
2017,05,07,00,23,5.10
2017,05,07,00,24,5.10
2017,05,07,00,25,5.10
2017,05,07,00,26,5.10
2017,05,07,00,27,5.10
2017,05,07,00,28,5.10
2017,05,07,00,29,5.10
2017,05,07,00,30,5.10
2017,05,07,00,31,5.10
2017,05,07,00,32,5.10
2017,05,07,00,33,5.10
2017,05,07,00,34,5.10
2017,05,07,00,35,5.10
2017,05,07,00,36,5.10
2017,05,07,00,37,5.10
2017,05,07,00,38,5.10
2017,05,07,00,39,5.10
2017,05,07,00,40,5.10
2017,05,07,00,41,5.10
2017,05,07,00,42,5.10
2017,05,07,00,43,5.10
2017,05,07,00,44,5.10
2017,05,07,00,45,5.10
2017,05,07,00,46,5.10
2017,05,07,00,47,5.10
2017,05,07,00,48,5.10
2017,05,07,00,49,5.10
2017,05,07,00,50,5.00
2017,05,07,00,51,5.00
2017,05,07,00,52,5.00
2017,05,07,00,53,5.00
2017,05,07,00,54,5.00
2017,05,07,00,55,5.00
2017,05,07,00,56,5.00
2017,05,07,00,57,5.00
2017,05,07,00,58,5.00
2017,05,07,00,59,5.00
2017,05,07,01,00,5.00
2017,05,07,01,01,5.00
2017,05,07,01,02,5.00
2017,05,07,01,03,5.00
2017,05,07,01,04,4.90
2017,05,07,01,05,4.90
2017,05,07,01,06,4.90
2017,05,07,01,07,4.90
2017,05,07,01,08,4.90
2017,05,07,01,09,4.80
2017,05,07,01,10,4.80
2017,05,07,01,11,4.80
2017,05,07,01,12,4.80
2017,05,07,01,13,4.80
2017,05,07,01,14,4.80
2017,05,07,01,15,4.80
2017,05,07,01,16,4.80
2017,05,07,01,17,4.80
2017,05,07,01,18,4.80
2017,05,07,01,19,4.80
2017,05,07,01,20,4.80
2017,05,07,01,21,4.80
2017,05,07,01,22,4.80
2017,05,07,01,23,4.80
2017,05,07,01,24,4.70
2017,05,07,01,25,4.70
2017,05,07,01,26,4.80
2017,05,07,01,27,4.70
2017,05,07,01,28,4.70
2017,05,07,01,29,4.80
2017,05,07,01,30,4.80
2017,05,07,01,31,4.80
2017,05,07,01,32,4.80
2017,05,07,01,33,4.80
2017,05,07,01,34,4.80
2017,05,07,01,35,4.80
2017,05,07,01,36,4.90
2017,05,07,01,37,4.90
2017,05,07,01,38,4.90
2017,05,07,01,39,4.90
2017,05,07,01,40,4.90
2017,05,07,01,41,4.90
2017,05,07,01,42,4.90
2017,05,07,01,43,4.90
2017,05,07,01,44,4.90
2017,05,07,01,45,4.90
2017,05,07,01,46,4.90
2017,05,07,01,47,5.00
2017,05,07,01,48,5.00
2017,05,07,01,49,5.00
2017,05,07,01,50,5.00
2017,05,07,01,51,5.00
2017,05,07,01,52,5.00
2017,05,07,01,53,5.00
2017,05,07,01,54,5.00
2017,05,07,01,55,5.10
2017,05,07,01,56,5.10
2017,05,07,01,57,5.10
2017,05,07,01,58,5.10
2017,05,07,01,59,5.10
2017,05,07,02,00,5.10
2017,05,07,02,01,5.10
2017,05,07,02,02,5.10
2017,05,07,02,03,5.10
2017,05,07,02,04,5.10
2017,05,07,02,05,5.10
2017,05,07,02,06,5.10
2017,05,07,02,07,5.10
2017,05,07,02,08,5.10
2017,05,07,02,09,5.10
2017,05,07,02,10,5.10
2017,05,07,02,11,5.10
2017,05,07,02,12,5.10
2017,05,07,02,13,5.20
2017,05,07,02,14,5.20
2017,05,07,02,15,5.20
2017,05,07,02,16,5.20
2017,05,07,02,17,5.20
2017,05,07,02,18,5.20
2017,05,07,02,19,5.20
2017,05,07,02,20,5.20
2017,05,07,02,21,5.20
2017,05,07,02,22,5.20
2017,05,07,02,23,5.20
2017,05,07,02,24,5.20
2017,05,07,02,25,5.20
2017,05,07,02,26,5.20
2017,05,07,02,27,5.20
2017,05,07,02,28,5.20
2017,05,07,02,29,5.20
2017,05,07,02,30,5.20
2017,05,07,02,31,5.20
2017,05,07,02,32,5.20
2017,05,07,02,33,5.20
2017,05,07,02,34,5.20
2017,05,07,02,35,5.20
2017,05,07,02,36,5.20
2017,05,07,02,37,5.20
2017,05,07,02,38,5.20
2017,05,07,02,39,5.20
2017,05,07,02,40,5.20
2017,05,07,02,41,5.20
2017,05,07,02,42,5.20
2017,05,07,02,43,5.20
2017,05,07,02,44,5.10
2017,05,07,02,45,5.10
2017,05,07,02,46,5.10
2017,05,07,02,47,5.10
2017,05,07,02,48,5.10
2017,05,07,02,49,5.10
2017,05,07,02,50,5.10
2017,05,07,02,51,5.10
2017,05,07,02,52,5.10
2017,05,07,02,53,5.10
2017,05,07,02,54,5.10
2017,05,07,02,55,5.10
2017,05,07,02,56,5.10
2017,05,07,02,57,5.10
2017,05,07,02,58,5.20
2017,05,07,02,59,5.20
2017,05,07,03,00,5.20
2017,05,07,03,01,5.20
2017,05,07,03,02,5.20
2017,05,07,03,03,5.20
2017,05,07,03,04,5.20
2017,05,07,03,05,5.20
2017,05,07,03,06,5.20
2017,05,07,03,07,5.20
2017,05,07,03,08,5.20
2017,05,07,03,09,5.20
2017,05,07,03,10,5.20
2017,05,07,03,11,5.20
2017,05,07,03,12,5.20
2017,05,07,03,13,5.20
2017,05,07,03,14,5.20
2017,05,07,03,15,5.20
2017,05,07,03,16,5.20
2017,05,07,03,17,5.20
2017,05,07,03,18,5.20
2017,05,07,03,19,5.10
2017,05,07,03,20,5.10
2017,05,07,03,21,5.10
2017,05,07,03,22,5.10
2017,05,07,03,23,5.10
2017,05,07,03,24,5.10
2017,05,07,03,25,5.10
2017,05,07,03,26,5.10
2017,05,07,03,27,5.10
2017,05,07,03,28,5.20
2017,05,07,03,29,5.10
2017,05,07,03,30,5.10
2017,05,07,03,31,5.10
2017,05,07,03,32,5.10
2017,05,07,03,33,5.10
2017,05,07,03,34,5.10
2017,05,07,03,35,5.10
2017,05,07,03,36,5.10
2017,05,07,03,37,5.10
2017,05,07,03,38,5.10
2017,05,07,03,39,5.10
2017,05,07,03,40,5.10
2017,05,07,03,41,5.10
2017,05,07,03,42,5.10
2017,05,07,03,43,5.10
2017,05,07,03,44,5.10
2017,05,07,03,45,5.10
2017,05,07,03,46,5.10
2017,05,07,03,47,5.10
2017,05,07,03,48,5.10
2017,05,07,03,49,5.10
2017,05,07,03,50,5.10
2017,05,07,03,51,5.10
2017,05,07,03,52,5.20
2017,05,07,03,53,5.20
2017,05,07,03,54,5.20
2017,05,07,03,55,5.20
2017,05,07,03,56,5.20
2017,05,07,03,57,5.20
2017,05,07,03,58,5.20
2017,05,07,03,59,5.20
2017,05,07,04,00,5.20
2017,05,07,04,01,5.20
2017,05,07,04,02,5.20
2017,05,07,04,03,5.20
2017,05,07,04,04,5.20
2017,05,07,04,05,5.20
2017,05,07,04,06,5.20
2017,05,07,04,07,5.20
2017,05,07,04,08,5.20
2017,05,07,04,09,5.20
2017,05,07,04,10,5.20
2017,05,07,04,11,5.20
2017,05,07,04,12,5.20
2017,05,07,04,13,5.10
2017,05,07,04,14,5.10
2017,05,07,04,15,5.10
2017,05,07,04,16,5.10
2017,05,07,04,17,5.10
2017,05,07,04,18,5.00
2017,05,07,04,19,5.00
2017,05,07,04,20,5.00
2017,05,07,04,21,5.00
2017,05,07,04,22,5.00
2017,05,07,04,23,5.00
2017,05,07,04,24,4.90
2017,05,07,04,25,4.90
2017,05,07,04,26,4.90
2017,05,07,04,27,4.90
2017,05,07,04,28,4.90
2017,05,07,04,29,4.90
2017,05,07,04,30,4.90
2017,05,07,04,31,4.90
2017,05,07,04,32,4.90
2017,05,07,04,33,4.90
2017,05,07,04,34,4.90
2017,05,07,04,35,4.90
2017,05,07,04,36,4.90
2017,05,07,04,37,4.90
2017,05,07,04,38,4.90
2017,05,07,04,39,4.90
2017,05,07,04,40,4.90
2017,05,07,04,41,5.00
2017,05,07,04,42,5.00
2017,05,07,04,43,5.00
2017,05,07,04,44,5.00
2017,05,07,04,45,5.00
2017,05,07,04,46,4.90
2017,05,07,04,47,4.90
2017,05,07,04,48,4.90
2017,05,07,04,49,4.90
2017,05,07,04,50,4.90
2017,05,07,04,51,4.90
2017,05,07,04,52,4.90
2017,05,07,04,53,4.90
2017,05,07,04,54,4.90
2017,05,07,04,55,4.80
2017,05,07,04,56,4.80
2017,05,07,04,57,4.80
2017,05,07,04,58,4.80
2017,05,07,04,59,4.80
2017,05,07,05,00,4.80
2017,05,07,05,01,4.80
2017,05,07,05,02,4.80
2017,05,07,05,03,4.80
2017,05,07,05,04,4.80
2017,05,07,05,05,4.80
2017,05,07,05,06,4.80
2017,05,07,05,07,4.80
2017,05,07,05,08,4.80
2017,05,07,05,09,4.80
2017,05,07,05,10,4.80
2017,05,07,05,11,4.80
2017,05,07,05,12,4.80
2017,05,07,05,13,4.80
2017,05,07,05,14,4.80
2017,05,07,05,15,4.80
2017,05,07,05,16,4.80
2017,05,07,05,17,4.80
2017,05,07,05,18,4.80
2017,05,07,05,19,4.80
2017,05,07,05,20,4.80
2017,05,07,05,21,4.80
2017,05,07,05,22,4.80
2017,05,07,05,23,4.80
2017,05,07,05,24,4.80
2017,05,07,05,25,4.80
2017,05,07,05,26,4.80
2017,05,07,05,27,4.80
2017,05,07,05,28,4.80
2017,05,07,05,29,4.80
2017,05,07,05,30,4.80
2017,05,07,05,31,4.70
2017,05,07,05,32,4.70
2017,05,07,05,33,4.70
2017,05,07,05,34,4.70
2017,05,07,05,35,4.70
2017,05,07,05,36,4.70
2017,05,07,05,37,4.70
2017,05,07,05,38,4.70
2017,05,07,05,39,4.70
2017,05,07,05,40,4.70
2017,05,07,05,41,4.70
2017,05,07,05,42,4.70
2017,05,07,05,43,4.60
2017,05,07,05,44,4.60
2017,05,07,05,45,4.60
2017,05,07,05,46,4.60
2017,05,07,05,47,4.60
2017,05,07,05,48,4.60
2017,05,07,05,49,4.60
2017,05,07,05,50,4.60
2017,05,07,05,51,4.60
2017,05,07,05,52,4.60
2017,05,07,05,53,4.50
2017,05,07,05,54,4.50
2017,05,07,05,55,4.50
2017,05,07,05,56,4.50
2017,05,07,05,57,4.50
2017,05,07,05,58,4.50
2017,05,07,05,59,4.50
2017,05,07,06,00,4.50
2017,05,07,06,01,4.50
2017,05,07,06,02,4.50
2017,05,07,06,03,4.40
2017,05,07,06,04,4.50
2017,05,07,06,05,4.40
2017,05,07,06,06,4.40
2017,05,07,06,07,4.40
2017,05,07,06,08,4.40
2017,05,07,06,09,4.40
2017,05,07,06,10,4.40
2017,05,07,06,11,4.40
2017,05,07,06,12,4.40
2017,05,07,06,13,4.40
2017,05,07,06,14,4.40
2017,05,07,06,15,4.40
2017,05,07,06,16,4.40
2017,05,07,06,17,4.50
2017,05,07,06,18,4.50
2017,05,07,06,19,4.50
2017,05,07,06,20,4.50
2017,05,07,06,21,4.50
2017,05,07,06,22,4.50
2017,05,07,06,23,4.50
2017,05,07,06,24,4.50
2017,05,07,06,25,4.50
2017,05,07,06,26,4.50
2017,05,07,06,27,4.50
2017,05,07,06,28,4.50
2017,05,07,06,29,4.60
2017,05,07,06,30,4.60
2017,05,07,06,31,4.60
2017,05,07,06,32,4.60
2017,05,07,06,33,4.60
2017,05,07,06,34,4.50
2017,05,07,06,35,4.50
2017,05,07,06,36,4.50
2017,05,07,06,37,4.50
2017,05,07,06,38,4.50
2017,05,07,06,39,4.50
2017,05,07,06,40,4.50
2017,05,07,06,41,4.50
2017,05,07,06,42,4.50
2017,05,07,06,43,4.50
2017,05,07,06,44,4.50
2017,05,07,06,45,4.50
2017,05,07,06,46,4.50
2017,05,07,06,47,4.40
2017,05,07,06,48,4.40
2017,05,07,06,49,4.40
2017,05,07,06,50,4.40
2017,05,07,06,51,4.40
2017,05,07,06,52,4.40
2017,05,07,06,53,4.40
2017,05,07,06,54,4.40
2017,05,07,06,55,4.40
2017,05,07,06,56,4.40
2017,05,07,06,57,4.40
2017,05,07,06,58,4.40
2017,05,07,06,59,4.40
2017,05,07,07,00,4.50
2017,05,07,07,01,4.40
2017,05,07,07,02,4.40
2017,05,07,07,03,4.40
2017,05,07,07,04,4.40
2017,05,07,07,05,4.40
2017,05,07,07,06,4.40
2017,05,07,07,07,4.40
2017,05,07,07,08,4.40
2017,05,07,07,09,4.40
2017,05,07,07,10,4.50
2017,05,07,07,11,4.50
2017,05,07,07,12,4.50
2017,05,07,07,13,4.60
2017,05,07,07,14,4.60
2017,05,07,07,15,4.60
2017,05,07,07,16,4.60
2017,05,07,07,17,4.60
2017,05,07,07,18,4.70
2017,05,07,07,19,4.70
2017,05,07,07,20,4.70
2017,05,07,07,21,4.70
2017,05,07,07,22,4.70
2017,05,07,07,23,4.60
2017,05,07,07,24,4.60
2017,05,07,07,25,4.60
2017,05,07,07,26,4.60
2017,05,07,07,27,4.60
2017,05,07,07,28,4.60
2017,05,07,07,29,4.60
2017,05,07,07,30,4.60
2017,05,07,07,31,4.60
2017,05,07,07,32,4.70
2017,05,07,07,33,4.70
2017,05,07,07,34,4.70
2017,05,07,07,35,4.70
2017,05,07,07,36,4.70
2017,05,07,07,37,4.80
2017,05,07,07,38,4.80
2017,05,07,07,39,4.80
2017,05,07,07,40,4.80
2017,05,07,07,41,4.80
2017,05,07,07,42,4.80
2017,05,07,07,43,4.90
2017,05,07,07,44,4.90
2017,05,07,07,45,4.90
2017,05,07,07,46,4.90
2017,05,07,07,47,4.90
2017,05,07,07,48,4.90
2017,05,07,07,49,4.90
2017,05,07,07,50,4.90
2017,05,07,07,51,4.90
2017,05,07,07,52,5.00
2017,05,07,07,53,5.00
2017,05,07,07,54,5.00
2017,05,07,07,55,5.00
2017,05,07,07,56,5.00
2017,05,07,07,57,5.10
2017,05,07,07,58,5.10
2017,05,07,07,59,5.10
2017,05,07,08,00,5.10
2017,05,07,08,01,5.20
2017,05,07,08,02,5.20
2017,05,07,08,03,5.20
2017,05,07,08,04,5.20
2017,05,07,08,05,5.20
2017,05,07,08,06,5.30
2017,05,07,08,07,5.30
2017,05,07,08,08,5.30
2017,05,07,08,09,5.30
2017,05,07,08,10,5.30
2017,05,07,08,11,5.30
2017,05,07,08,12,5.30
2017,05,07,08,13,5.30
2017,05,07,08,14,5.30
2017,05,07,08,15,5.30
2017,05,07,08,16,5.40
2017,05,07,08,17,5.40
2017,05,07,08,18,5.40
2017,05,07,08,19,5.50
2017,05,07,08,20,5.50
2017,05,07,08,21,5.60
2017,05,07,08,22,5.60
2017,05,07,08,23,5.70
2017,05,07,08,24,5.80
2017,05,07,08,25,5.80
2017,05,07,08,26,5.80
2017,05,07,08,27,5.90
2017,05,07,08,28,5.90
2017,05,07,08,29,6.00
2017,05,07,08,30,6.00
2017,05,07,08,31,6.10
2017,05,07,08,32,6.20
2017,05,07,08,33,6.20
2017,05,07,08,34,6.20
2017,05,07,08,35,6.30
2017,05,07,08,36,6.30
2017,05,07,08,37,6.30
2017,05,07,08,38,6.30
2017,05,07,08,39,6.30
2017,05,07,08,40,6.30
2017,05,07,08,41,6.30
2017,05,07,08,42,6.30
2017,05,07,08,43,6.30
2017,05,07,08,44,6.30
2017,05,07,08,45,6.30
2017,05,07,08,46,6.30
2017,05,07,08,47,6.30
2017,05,07,08,48,6.30
2017,05,07,08,49,6.30
2017,05,07,08,50,6.30
2017,05,07,08,51,6.40
2017,05,07,08,52,6.40
2017,05,07,08,53,6.50
2017,05,07,08,54,6.50
2017,05,07,08,55,6.60
2017,05,07,08,56,6.70
2017,05,07,08,57,6.80
2017,05,07,08,58,6.90
2017,05,07,08,59,7.00
2017,05,07,09,00,7.10
2017,05,07,09,01,7.20
2017,05,07,09,02,7.30
2017,05,07,09,03,7.30
2017,05,07,09,04,7.40
2017,05,07,09,05,7.40
2017,05,07,09,06,7.40
2017,05,07,09,07,7.40
2017,05,07,09,08,7.40
2017,05,07,09,09,7.50
2017,05,07,09,10,7.50
2017,05,07,09,11,7.60
2017,05,07,09,12,7.70
2017,05,07,09,13,7.90
2017,05,07,09,14,8.00
2017,05,07,09,15,8.00
2017,05,07,09,16,8.00
2017,05,07,09,17,8.10
2017,05,07,09,18,8.10
2017,05,07,09,19,8.00
2017,05,07,09,20,8.00
2017,05,07,09,21,7.90
2017,05,07,09,22,7.90
2017,05,07,09,23,7.90
2017,05,07,09,24,7.80
2017,05,07,09,25,7.90
2017,05,07,09,26,7.90
2017,05,07,09,27,7.90
2017,05,07,09,28,7.90
2017,05,07,09,29,7.90
2017,05,07,09,30,8.10
2017,05,07,09,31,8.20
2017,05,07,09,32,8.30
2017,05,07,09,33,8.50
2017,05,07,09,34,8.60
2017,05,07,09,35,8.60
2017,05,07,09,36,8.60
2017,05,07,09,37,8.60
2017,05,07,09,38,8.70
2017,05,07,09,39,8.70
2017,05,07,09,40,8.60
2017,05,07,09,41,8.50
2017,05,07,09,42,8.40
2017,05,07,09,43,8.30
2017,05,07,09,44,8.20
2017,05,07,09,45,8.20
2017,05,07,09,46,8.20
2017,05,07,09,47,8.20
2017,05,07,09,48,8.20
2017,05,07,09,49,8.20
2017,05,07,09,50,8.20
2017,05,07,09,51,8.30
2017,05,07,09,52,8.30
2017,05,07,09,53,8.40
2017,05,07,09,54,8.50
2017,05,07,09,55,8.60
2017,05,07,09,56,8.70
2017,05,07,09,57,8.80
2017,05,07,09,58,8.80
2017,05,07,09,59,8.70
2017,05,07,10,00,8.70
2017,05,07,10,01,8.70
2017,05,07,10,02,8.70
2017,05,07,10,03,8.70
2017,05,07,10,04,8.70
2017,05,07,10,05,8.80
2017,05,07,10,06,8.80
2017,05,07,10,07,8.80
2017,05,07,10,08,8.80
2017,05,07,10,09,8.80
2017,05,07,10,10,8.90
2017,05,07,10,11,8.90
2017,05,07,10,12,9.00
2017,05,07,10,13,9.00
2017,05,07,10,14,9.00
2017,05,07,10,15,9.00
2017,05,07,10,16,8.90
2017,05,07,10,17,9.00
2017,05,07,10,18,9.00
2017,05,07,10,19,9.00
2017,05,07,10,20,9.10
2017,05,07,10,21,9.10
2017,05,07,10,22,9.10
2017,05,07,10,23,9.20
2017,05,07,10,24,9.20
2017,05,07,10,25,9.20
2017,05,07,10,26,9.10
2017,05,07,10,27,9.10
2017,05,07,10,28,9.10
2017,05,07,10,29,9.10
2017,05,07,10,30,9.10
2017,05,07,10,31,9.20
2017,05,07,10,32,9.20
2017,05,07,10,33,9.20
2017,05,07,10,34,9.20
2017,05,07,10,35,9.20
2017,05,07,10,36,9.20
2017,05,07,10,37,9.20
2017,05,07,10,38,9.20
2017,05,07,10,39,9.30
2017,05,07,10,40,9.30
2017,05,07,10,41,9.40
2017,05,07,10,42,9.50
2017,05,07,10,43,9.50
2017,05,07,10,44,9.60
2017,05,07,10,45,9.70
2017,05,07,10,46,9.80
2017,05,07,10,47,9.80
2017,05,07,10,48,10.00
2017,05,07,10,49,10.10
2017,05,07,10,50,10.20
2017,05,07,10,51,10.30
2017,05,07,10,52,10.30
2017,05,07,10,53,10.30
2017,05,07,10,54,10.40
2017,05,07,10,55,10.40
2017,05,07,10,56,10.40
2017,05,07,10,57,10.30
2017,05,07,10,58,10.30
2017,05,07,10,59,10.40
2017,05,07,11,00,10.40
2017,05,07,11,01,10.30
2017,05,07,11,02,10.30
2017,05,07,11,03,10.30
2017,05,07,11,04,10.30
2017,05,07,11,05,10.30
2017,05,07,11,06,10.30
2017,05,07,11,07,10.30
2017,05,07,11,08,10.40
2017,05,07,11,09,10.40
2017,05,07,11,10,10.40
2017,05,07,11,11,10.40
2017,05,07,11,12,10.40
2017,05,07,11,13,10.40
2017,05,07,11,14,10.40
2017,05,07,11,15,10.50
2017,05,07,11,16,10.50
2017,05,07,11,17,10.60
2017,05,07,11,18,10.70
2017,05,07,11,19,10.80
2017,05,07,11,20,10.80
2017,05,07,11,21,10.90
2017,05,07,11,22,10.90
2017,05,07,11,23,10.90
2017,05,07,11,24,11.00
2017,05,07,11,25,11.10
2017,05,07,11,26,11.10
2017,05,07,11,27,11.10
2017,05,07,11,28,11.20
2017,05,07,11,29,11.20
2017,05,07,11,30,11.20
2017,05,07,11,31,11.30
2017,05,07,11,32,11.40
2017,05,07,11,33,11.40
2017,05,07,11,34,11.40
2017,05,07,11,35,11.40
2017,05,07,11,36,11.30
2017,05,07,11,37,11.30
2017,05,07,11,38,11.30
2017,05,07,11,39,11.30
2017,05,07,11,40,11.30
2017,05,07,11,41,11.30
2017,05,07,11,42,11.30
2017,05,07,11,43,11.30
2017,05,07,11,44,11.30
2017,05,07,11,45,11.40
2017,05,07,11,46,11.40
2017,05,07,11,47,11.50
2017,05,07,11,48,11.60
2017,05,07,11,49,11.60
2017,05,07,11,50,11.70
2017,05,07,11,51,11.80
2017,05,07,11,52,11.80
2017,05,07,11,53,11.80
2017,05,07,11,54,11.80
2017,05,07,11,55,11.80
2017,05,07,11,56,11.80
2017,05,07,11,57,11.80
2017,05,07,11,58,11.90
2017,05,07,11,59,11.90
2017,05,07,12,00,12.00
2017,05,07,12,01,12.10
2017,05,07,12,02,12.10
2017,05,07,12,03,12.20
2017,05,07,12,04,12.20
2017,05,07,12,05,12.20
2017,05,07,12,06,12.30
2017,05,07,12,07,12.20
2017,05,07,12,08,12.20
2017,05,07,12,09,12.20
2017,05,07,12,10,12.20
2017,05,07,12,11,12.20
2017,05,07,12,12,12.30
2017,05,07,12,13,12.30
2017,05,07,12,14,12.30
2017,05,07,12,15,12.40
2017,05,07,12,16,12.40
2017,05,07,12,17,12.50
2017,05,07,12,18,12.60
2017,05,07,12,19,12.60
2017,05,07,12,20,12.60
2017,05,07,12,21,12.70
2017,05,07,12,22,12.80
2017,05,07,12,23,12.80
2017,05,07,12,24,12.80
2017,05,07,12,25,12.90
2017,05,07,12,26,13.00
2017,05,07,12,27,13.10
2017,05,07,12,28,13.20
2017,05,07,12,29,13.10
2017,05,07,12,30,13.10
2017,05,07,12,31,13.10
2017,05,07,12,32,13.10
2017,05,07,12,33,13.10
2017,05,07,12,34,13.10
2017,05,07,12,35,13.10
2017,05,07,12,36,13.20
2017,05,07,12,37,13.30
2017,05,07,12,38,13.40
2017,05,07,12,39,13.50
2017,05,07,12,40,13.60
2017,05,07,12,41,13.70
2017,05,07,12,42,13.80
2017,05,07,12,43,13.90
2017,05,07,12,44,14.00
2017,05,07,12,45,14.00
2017,05,07,12,46,13.90
2017,05,07,12,47,13.80
2017,05,07,12,48,13.70
2017,05,07,12,49,13.60
2017,05,07,12,50,13.60
2017,05,07,12,51,13.60
2017,05,07,12,52,13.60
2017,05,07,12,53,13.60
2017,05,07,12,54,13.70
2017,05,07,12,55,13.80
2017,05,07,12,56,13.90
2017,05,07,12,57,13.90
2017,05,07,12,58,14.00
2017,05,07,12,59,14.00
2017,05,07,13,00,14.10
2017,05,07,13,01,14.20
2017,05,07,13,02,14.30
2017,05,07,13,03,14.40
2017,05,07,13,04,14.50
2017,05,07,13,05,14.60
2017,05,07,13,06,14.70
2017,05,07,13,07,14.80
2017,05,07,13,08,14.80
2017,05,07,13,09,14.80
2017,05,07,13,10,14.80
2017,05,07,13,11,14.80
2017,05,07,13,12,14.70
2017,05,07,13,13,14.70
2017,05,07,13,14,14.70
2017,05,07,13,15,14.70
2017,05,07,13,16,14.70
2017,05,07,13,17,14.60
2017,05,07,13,18,14.60
2017,05,07,13,19,14.60
2017,05,07,13,20,14.60
2017,05,07,13,21,14.70
2017,05,07,13,22,14.70
2017,05,07,13,23,14.70
2017,05,07,13,24,14.80
2017,05,07,13,25,14.80
2017,05,07,13,26,14.80
2017,05,07,13,27,14.80
2017,05,07,13,28,14.80
2017,05,07,13,29,14.90
2017,05,07,13,30,14.90
2017,05,07,13,31,14.90
2017,05,07,13,32,14.90
2017,05,07,13,33,14.90
2017,05,07,13,34,14.90
2017,05,07,13,35,14.90
2017,05,07,13,36,14.80
2017,05,07,13,37,14.80
2017,05,07,13,38,14.70
2017,05,07,13,39,14.70
2017,05,07,13,40,14.70
2017,05,07,13,41,14.70
2017,05,07,13,42,14.70
2017,05,07,13,43,14.70
2017,05,07,13,44,14.70
2017,05,07,13,45,14.70
2017,05,07,13,46,14.80
2017,05,07,13,47,14.80
2017,05,07,13,48,14.80
2017,05,07,13,49,14.80
2017,05,07,13,50,14.70
2017,05,07,13,51,14.70
2017,05,07,13,52,14.70
2017,05,07,13,53,14.70
2017,05,07,13,54,14.70
2017,05,07,13,55,14.70
2017,05,07,13,56,14.70
2017,05,07,13,57,14.80
2017,05,07,13,58,14.90
2017,05,07,13,59,14.90
2017,05,07,14,00,15.00
2017,05,07,14,01,15.10
2017,05,07,14,02,15.10
2017,05,07,14,03,15.20
2017,05,07,14,04,15.10
2017,05,07,14,05,15.10
2017,05,07,14,06,15.10
2017,05,07,14,07,15.00
2017,05,07,14,08,14.90
2017,05,07,14,09,15.00
2017,05,07,14,10,15.00
2017,05,07,14,11,15.10
2017,05,07,14,12,15.20
2017,05,07,14,13,15.20
2017,05,07,14,14,15.10
2017,05,07,14,15,15.10
2017,05,07,14,16,15.10
2017,05,07,14,17,15.10
2017,05,07,14,18,15.10
2017,05,07,14,19,15.20
2017,05,07,14,20,15.20
2017,05,07,14,21,15.20
2017,05,07,14,22,15.20
2017,05,07,14,23,15.20
2017,05,07,14,24,15.20
2017,05,07,14,25,15.20
2017,05,07,14,26,15.20
2017,05,07,14,27,15.10
2017,05,07,14,28,15.10
2017,05,07,14,29,15.10
2017,05,07,14,30,15.10
2017,05,07,14,31,15.10
2017,05,07,14,32,15.20
2017,05,07,14,33,15.10
2017,05,07,14,34,15.00
2017,05,07,14,35,14.90
2017,05,07,14,36,14.90
2017,05,07,14,37,15.00
2017,05,07,14,38,15.00
2017,05,07,14,39,15.10
2017,05,07,14,40,15.20
2017,05,07,14,41,15.30
2017,05,07,14,42,15.40
2017,05,07,14,43,15.50
2017,05,07,14,44,15.50
2017,05,07,14,45,15.60
2017,05,07,14,46,15.70
2017,05,07,14,47,15.80
2017,05,07,14,48,15.70
2017,05,07,14,49,15.70
2017,05,07,14,50,15.70
2017,05,07,14,51,15.70
2017,05,07,14,52,15.70
2017,05,07,14,53,15.70
2017,05,07,14,54,15.70
2017,05,07,14,55,15.70
2017,05,07,14,56,15.70
2017,05,07,14,57,15.70
2017,05,07,14,58,15.70
2017,05,07,14,59,15.60
2017,05,07,15,00,15.50
2017,05,07,15,01,15.50
2017,05,07,15,02,15.50
2017,05,07,15,03,15.60
2017,05,07,15,04,15.70
2017,05,07,15,05,15.80
2017,05,07,15,06,15.80
2017,05,07,15,07,15.70
2017,05,07,15,08,15.70
2017,05,07,15,09,15.70
2017,05,07,15,10,15.60
2017,05,07,15,11,15.60
2017,05,07,15,12,15.60
2017,05,07,15,13,15.50
2017,05,07,15,14,15.50
2017,05,07,15,15,15.50
2017,05,07,15,16,15.50
2017,05,07,15,17,15.50
2017,05,07,15,18,15.40
2017,05,07,15,19,15.40
2017,05,07,15,20,15.40
2017,05,07,15,21,15.40
2017,05,07,15,22,15.40
2017,05,07,15,23,15.40
2017,05,07,15,24,15.30
2017,05,07,15,25,15.30
2017,05,07,15,26,15.20
2017,05,07,15,27,15.20
2017,05,07,15,28,15.20
2017,05,07,15,29,15.30
2017,05,07,15,30,15.30
2017,05,07,15,31,15.30
2017,05,07,15,32,15.40
2017,05,07,15,33,15.40
2017,05,07,15,34,15.50
2017,05,07,15,35,15.50
2017,05,07,15,36,15.50
2017,05,07,15,37,15.50
2017,05,07,15,38,15.40
2017,05,07,15,39,15.40
2017,05,07,15,40,15.30
2017,05,07,15,41,15.30
2017,05,07,15,42,15.30
2017,05,07,15,43,15.30
2017,05,07,15,44,15.30
2017,05,07,15,45,15.30
2017,05,07,15,46,15.20
2017,05,07,15,47,15.10
2017,05,07,15,48,15.10
2017,05,07,15,49,15.00
2017,05,07,15,50,15.00
2017,05,07,15,51,15.00
2017,05,07,15,52,14.90
2017,05,07,15,53,14.90
2017,05,07,15,54,14.80
2017,05,07,15,55,14.80
2017,05,07,15,56,14.80
2017,05,07,15,57,14.80
2017,05,07,15,58,14.80
2017,05,07,15,59,14.80
2017,05,07,16,00,14.70
2017,05,07,16,01,14.70
2017,05,07,16,02,14.70
2017,05,07,16,03,14.60
2017,05,07,16,04,14.60
2017,05,07,16,05,14.50
2017,05,07,16,06,14.50
2017,05,07,16,07,14.50
2017,05,07,16,08,14.40
2017,05,07,16,09,14.40
2017,05,07,16,10,14.30
2017,05,07,16,11,14.30
2017,05,07,16,12,14.30
2017,05,07,16,13,14.30
2017,05,07,16,14,14.40
2017,05,07,16,15,14.40
2017,05,07,16,16,14.40
2017,05,07,16,17,14.40
2017,05,07,16,18,14.40
2017,05,07,16,19,14.40
2017,05,07,16,20,14.50
2017,05,07,16,21,14.60
2017,05,07,16,22,14.60
2017,05,07,16,23,14.60
2017,05,07,16,24,14.60
2017,05,07,16,25,14.60
2017,05,07,16,26,14.60
2017,05,07,16,27,14.60
2017,05,07,16,28,14.60
2017,05,07,16,29,14.60
2017,05,07,16,30,14.60
2017,05,07,16,31,14.70
2017,05,07,16,32,14.70
2017,05,07,16,33,14.70
2017,05,07,16,34,14.80
2017,05,07,16,35,14.80
2017,05,07,16,36,14.80
2017,05,07,16,37,14.80
2017,05,07,16,38,14.80
2017,05,07,16,39,14.70
2017,05,07,16,40,14.70
2017,05,07,16,41,14.70
2017,05,07,16,42,14.80
2017,05,07,16,43,14.90
2017,05,07,16,44,14.90
2017,05,07,16,45,14.90
2017,05,07,16,46,14.90
2017,05,07,16,47,14.90
2017,05,07,16,48,14.80
2017,05,07,16,49,14.80
2017,05,07,16,50,14.70
2017,05,07,16,51,14.70
2017,05,07,16,52,14.60
2017,05,07,16,53,14.50
2017,05,07,16,54,14.50
2017,05,07,16,55,14.60
2017,05,07,16,56,14.60
2017,05,07,16,57,14.70
2017,05,07,16,58,14.80
2017,05,07,16,59,14.80
2017,05,07,17,00,14.70
2017,05,07,17,01,14.70
2017,05,07,17,02,14.60
2017,05,07,17,03,14.60
2017,05,07,17,04,14.60
2017,05,07,17,05,14.60
2017,05,07,17,06,14.60
2017,05,07,17,07,14.60
2017,05,07,17,08,14.60
2017,05,07,17,09,14.50
2017,05,07,17,10,14.50
2017,05,07,17,11,14.40
2017,05,07,17,12,14.30
2017,05,07,17,13,14.20
2017,05,07,17,14,14.10
2017,05,07,17,15,14.10
2017,05,07,17,16,14.00
2017,05,07,17,17,13.90
2017,05,07,17,18,13.90
2017,05,07,17,19,13.90
2017,05,07,17,20,13.90
2017,05,07,17,21,13.90
2017,05,07,17,22,13.80
2017,05,07,17,23,13.80
2017,05,07,17,24,13.80
2017,05,07,17,25,13.80
2017,05,07,17,26,13.80
2017,05,07,17,27,13.80
2017,05,07,17,28,13.70
2017,05,07,17,29,13.70
2017,05,07,17,30,13.70
2017,05,07,17,31,13.70
2017,05,07,17,32,13.70
2017,05,07,17,33,13.70
2017,05,07,17,34,13.70
2017,05,07,17,35,13.60
2017,05,07,17,36,13.60
2017,05,07,17,37,13.60
2017,05,07,17,38,13.60
2017,05,07,17,39,13.60
2017,05,07,17,40,13.60
2017,05,07,17,41,13.60
2017,05,07,17,42,13.60
2017,05,07,17,43,13.60
2017,05,07,17,44,13.60
2017,05,07,17,45,13.60
2017,05,07,17,46,13.60
2017,05,07,17,47,13.70